CZ-6A DEB

Satellite information

Favourite Embed

Satellite Type and Status

DEBRISIN ORBIT

Key statistics

Satellite CZ-6A DEB at a glance.

Uptime

494

Days in orbit

Revolutions

≈ 14.4

Per day

Orbit

LEO

Low Earth Orbit

Inclination

89.3

Latest

Satellite identification and parameters

Extended collection of information and parameters for CZ-6A DEB.

Object identification

Identified? True

Debris? True

Object name: CZ-6A DEB

International designator: 2024-140CG

Object number (NORAD): 60679

Object ID (CCSDS): 60679

Country: PEOPLES REPUBLIC OF CHINA (PRC)

Current information (Y/N): Y

RCS size: MEDIUM

Orbital parameters

Period: 100.151 minutes

Inclination: 89.3066 deg

SMA: 7143.828 km

Apoapsis: 803.216 km

Periapsis: 728.171 km

RAAN: 312.3041 deg

Eccentricy: 0.0052524

Argument of periapsis: 148.8842 deg

Mean anomaly: 211.5487 deg

Mean motion: 14.3782568 rev/day

Mean motion (dot): 0.0000249 rev/day2

B* drag term: 0.00080884 1/REarth

Two-line elements (TLE)

Creation date: Dec. 12, 2025, 7:26 a.m.

Reference frame: TEME

Reference center: EARTH

Epoch: Dec. 11, 2025, 10:46 p.m. UTC

TLE line 0: 0 CZ-6A DEB

TLE line 1: 1 60679U 24140CG 25345.94888167 .00002490 00000-0 80884-3 0 9995

TLE line 2: 2 60679 89.3066 312.3041 0052524 148.8842 211.5487 14.37825680 70323

Live tracking on map

Real-time ground track for satellite CZ-6A DEB.

In-orbit conjunctions

A list of the most updated potential collisions computed for object CZ-6A DEB.

Target Orbit TCA Probability of collision Miss distance Type
DELTA 1 DEB SSO 2025-01-16 21:04:43 0.0001503785 320.0 (m) DEBRIS
COSMOS 1371 LEO 2024-12-07 23:47:29 0.0003495014 577.0 (m) PAYLOAD
COSMOS 2251 DEB LEO 2024-11-20 17:19:56 0.0004123644 896.0 (m) DEBRIS
FENGYUN 1C DEB SSO 2024-10-29 16:46:19 0.0002917574 884.0 (m) DEBRIS
FENGYUN 1C DEB SSO 2024-10-05 07:55:59 0.000159305 899.0 (m) DEBRIS

Associated space launch

18 Low Earth Orbit communication satellites with Ku, Q and V band payloads for the G60 constellation operated by Shanghai Spacecom Satellite Technology (SSST) with funding backed by the Shanghai local government. Initial constellation will consist of 1296 satellites by 2027 with long term plans to expand it to 12000 satellites.

CZ-6A DEB was lifted into orbit during the mission ‘Long March 6A | G60 Polar Group 01’, on board a Long March 6A space rocket.

The launch took place on Aug. 6, 2024, 6:42 a.m. from Launch Complex 9A.

For more information about the launch, click the button.

Launch to space Long March 6A | G60 Polar Group 01
Long March 6A | G60 Polar Group 01

Agency: N/A

Status: Launch Successful

Launch date: Aug. 6, 2024, 6:42 a.m. UTC

Rocket: Long March 6A

Launch pad: Launch Complex 9A

Location: Taiyuan Satellite Launch Center, People's Republic of China

...

Latest news about this satellite

News about space launch
Brightness of first Chinese broadband constellation satellites alarms astronomers

The first satellites of a Chinese broadband constellation are significantly brighter than those of Western systems, posing a new challenge for astronomers.

News about space launch
Chinese rocket stage breaks up into cloud of more than 700 pieces of space debris

HELSINKI — A Chinese Long March 6A rocket’s upper stage has fragmented into a cloud of over 700 pieces of space debris, adding to concerns about long-term orbital safety. China […]

News about space launch
China's Thousand Sails Megaconstellation Kicks Off with Dangerous Debris Field

China's Thousand Sails Megaconstellation Kicks Off with Dangerous Debris Field


Newsletter sign-up

Weekly statistics, charts and insights to help you stay on top of the space industry.